{"data":{"norad_id":65920,"intl_designator":"2025-225L","name":"STARLINK-33902","alt_names":[],"object_type":"PAYLOAD","status":"ACTIVE","operator":null,"country":"US","launch_date":"2025-10-08","launch_site_code":"AFWTR","launch_vehicle":null,"mission":null,"orbit_class":"UNKNOWN","rcs_meters":null,"size_class":null,"mass_kg":null,"dimensions":null,"purposes":["comms"],"wikipedia_slug":null,"has_3d_model":false,"image_url":null,"decayed_at":null,"tle_current":{"epoch":"2026-05-25T00:55:01.032960Z","epoch_age_seconds":82268,"freshness":"FRESH","line1":"1 65920U 25225L   26145.03820640  .00013978  00000+0  48305-3 0  9999","line2":"2 65920  53.1582 171.3180 0001119  91.7284 268.3845 15.30207989 36090","mean_motion":15.30207989,"eccentricity":0.0001119,"inclination_deg":53.1582,"raan_deg":171.318,"arg_perigee_deg":91.7284,"mean_anomaly_deg":268.3845,"bstar":0.00048305,"rev_number":3609,"period_min":94.104854395712,"perigee_km":474.42432838178,"apogee_km":475.95810323648,"semimajor_km":6853.3282158091,"source":"CELESTRAK","updated_at":"2026-05-25T13:38:20.987902Z"}}}